Gardabani

Georgia     41˚27′45″N   45˚05′28″E
temp.,
°C
wind,
m/s
gust,
m/s
humid.,
%
clouds,
%
prec.,
mm/h
press.,
hPa
HPBL,
m
29 november, sun
sun2901:00+3˚nw11761 0.0 102922
04:00+2˚nnw11795 0.0 102822
07:00+1˚wnw117899 0.0 102822
10:00+4˚wnw1166100 0.0 102788
13:00+7˚sw1151100 0.0 1024391
16:00+8˚sse1149100 0.0 1024343
19:00+6˚se1257100 0.1 102529
22:00+6˚sw1171100 0.1 102690
30 november, mon
mon3001:00+5˚ssw1172100 0.0 102676
04:00+5˚sse1171100 0.0 102544
07:00+4˚ne007594 0.0 102428
10:00+6˚sw117090 0.0 1025172
13:00+9˚se236163 0.0 1022690
16:00+9˚se346153 0.0 10221009
19:00+7˚ese3575100 0.0 1023483
22:00+7˚ese2578100 0.0 1024646
1 december, tue
tue101:00+7˚e258099 0.1 1024535
04:00+6˚ese148199 0.1 1024491
07:00+6˚e1183100 0.1 102492
10:00+7˚ne0177100 0.1 1024234
13:00+9˚sw116145 0.0 1022835
16:00+10˚sw115837 0.0 1021810
19:00+7˚wsw11720 0.0 102322
22:00+5˚nnw117610 0.0 102422
2 december, wed
wed201:00+5˚nw117968 0.0 102522
04:00+4˚nw118235 0.0 102522
07:00+3˚wnw11820 0.0 102522
10:00+6˚wsw00680 0.0 102594
13:00+9˚se11550 0.0 1023493
16:00+10˚sse22530 0.0 1022656
19:00+7˚ne00700 0.0 102422
22:00+6˚ne01750 0.0 102622
3 december, thu
thu301:00+5˚nw11800 0.0 102722
04:00+4˚nw11830 0.0 102722
07:00+3˚nw118313 0.0 102722
10:00+6˚nne117126 0.0 102873
13:00+9˚sse116086 0.0 1026417
16:00+10˚sse125463 0.0 1025812
19:00+6˚sw117019 0.0 102722
22:00+6˚n017131 0.0 102822